N675JK KBIL-KEGE

Flight info

Callsign N675JK
Flight time 1h 3m
Altitude 45000
Route SHR RLG
Aircraft C700/M-SBDGHM1RWXY/LB2

Departure

Time 2026-04-30 00:44
Airport Billings Logan International Airport (KBIL)

Arrival

Time 2026-04-30 01:48
Airport Eagle County Regional Airport (KEGE)
Time Latitude Longitude Altitude Speed Heading
2026-04-30 00:22 45.80364 -108.53004 3525 ft 0 kts 310°
2026-04-30 00:41 45.80377 -108.52993 3525 ft 8 kts 30°
2026-04-30 00:42 45.80439 -108.52920 3524 ft 14 kts 84°
2026-04-30 00:42 45.80399 -108.52769 3520 ft 19 kts 111°
2026-04-30 00:42 45.80343 -108.52572 3515 ft 24 kts 110°
2026-04-30 00:42 45.80286 -108.52365 3512 ft 23 kts 112°
2026-04-30 00:43 45.80219 -108.52133 3506 ft 28 kts 117°
2026-04-30 00:43 45.80147 -108.51906 3497 ft 26 kts 109°
2026-04-30 00:43 45.80132 -108.51719 3492 ft 16 kts 52°
2026-04-30 00:43 45.80209 -108.51679 3492 ft 7 kts 326°
2026-04-30 00:44 45.80232 -108.51752 3503 ft 14 kts 292°
2026-04-30 00:44 45.80378 -108.52272 3513 ft 104 kts 292°
2026-04-30 00:44 45.80732 -108.53598 3863 ft 170 kts 294°
2026-04-30 00:44 45.81166 -108.55395 4965 ft 214 kts 292°
2026-04-30 00:45 45.81670 -108.57526 6176 ft 235 kts 291°
2026-04-30 00:45 45.82169 -108.59847 7578 ft 257 kts 284°
2026-04-30 00:45 45.81966 -108.62510 8803 ft 289 kts 250°
2026-04-30 00:45 45.80625 -108.64744 10084 ft 297 kts 214°
2026-04-30 00:46 45.78629 -108.65557 11083 ft 314 kts 182°
2026-04-30 00:46 45.76441 -108.64852 12526 ft 330 kts 154°
2026-04-30 00:46 45.74694 -108.62753 14439 ft 334 kts 132°
2026-04-30 00:46 45.73189 -108.60073 15637 ft 353 kts 126°
2026-04-30 00:47 45.71783 -108.57197 17145 ft 361 kts 126°
2026-04-30 00:47 45.70211 -108.54322 18412 ft 372 kts 131°
2026-04-30 00:47 45.68497 -108.51495 19508 ft 379 kts 131°
2026-04-30 00:47 45.66811 -108.48565 20574 ft 384 kts 129°
2026-04-30 00:48 45.65152 -108.45531 21598 ft 389 kts 128°
2026-04-30 00:48 45.63451 -108.42495 22621 ft 393 kts 129°
2026-04-30 00:48 45.61693 -108.39442 23647 ft 398 kts 129°
2026-04-30 00:48 45.59935 -108.36365 24490 ft 403 kts 129°
2026-04-30 00:49 45.58188 -108.33267 25289 ft 408 kts 129°
2026-04-30 00:49 45.56389 -108.30094 26087 ft 413 kts 129°
2026-04-30 00:49 45.54562 -108.26898 26876 ft 419 kts 129°
2026-04-30 00:49 45.52709 -108.23655 27642 ft 424 kts 129°
2026-04-30 00:50 45.50833 -108.20364 28416 ft 429 kts 130°
2026-04-30 00:50 45.48933 -108.17034 29167 ft 435 kts 130°
2026-04-30 00:50 45.47006 -108.13671 29915 ft 441 kts 130°
2026-04-30 00:50 45.45053 -108.10264 30583 ft 446 kts 130°
2026-04-30 00:51 45.43076 -108.06817 31200 ft 451 kts 130°
2026-04-30 00:51 45.41098 -108.03371 31788 ft 457 kts 130°
2026-04-30 00:51 45.39075 -107.99853 32373 ft 462 kts 130°
2026-04-30 00:51 45.37027 -107.96298 32936 ft 467 kts 130°
2026-04-30 00:52 45.34960 -107.92712 33512 ft 471 kts 130°
2026-04-30 00:52 45.32878 -107.89102 34277 ft 470 kts 130°
2026-04-30 00:52 45.30805 -107.85515 34902 ft 470 kts 130°
2026-04-30 00:52 45.28753 -107.81971 35509 ft 470 kts 130°
2026-04-30 00:53 45.26675 -107.78385 36126 ft 470 kts 130°
2026-04-30 00:53 45.24596 -107.74802 36710 ft 470 kts 130°
2026-04-30 00:53 45.22516 -107.71219 37296 ft 470 kts 130°
2026-04-30 00:53 45.20434 -107.67641 37860 ft 470 kts 130°
2026-04-30 00:54 45.18355 -107.64071 38400 ft 470 kts 130°
2026-04-30 00:54 45.16278 -107.60510 38931 ft 470 kts 130°
2026-04-30 00:54 45.14187 -107.56927 39335 ft 470 kts 130°
2026-04-30 00:54 45.12102 -107.53360 39740 ft 470 kts 130°
2026-04-30 00:55 45.10037 -107.49834 40123 ft 469 kts 130°
2026-04-30 00:55 45.07952 -107.46276 40489 ft 469 kts 130°
2026-04-30 00:55 45.03782 -107.39173 41209 ft 469 kts 130°
2026-04-30 00:56 45.01694 -107.35624 41555 ft 469 kts 130°
2026-04-30 00:56 44.99603 -107.32075 41889 ft 469 kts 130°
2026-04-30 00:56 44.97508 -107.28522 42208 ft 470 kts 130°
2026-04-30 00:56 44.95415 -107.24977 42507 ft 469 kts 130°
2026-04-30 00:57 44.93323 -107.21438 42809 ft 470 kts 130°
2026-04-30 00:57 44.91226 -107.17898 43091 ft 470 kts 130°
2026-04-30 00:57 44.89127 -107.14367 43378 ft 470 kts 131°
2026-04-30 00:57 44.86821 -107.11206 43646 ft 468 kts 143°
2026-04-30 00:58 44.84116 -107.08587 43923 ft 465 kts 152°
2026-04-30 00:58 44.81229 -107.06667 44174 ft 462 kts 162°
2026-04-30 00:58 44.78155 -107.05415 44417 ft 459 kts 172°
2026-04-30 00:58 44.74998 -107.04832 44673 ft 456 kts 178°
2026-04-30 00:59 44.71838 -107.04411 44928 ft 456 kts 178°
2026-04-30 00:59 44.68668 -107.03964 45152 ft 456 kts 177°
2026-04-30 00:59 44.62277 -107.03088 45209 ft 465 kts 178°
2026-04-30 01:00 44.55806 -107.02200 45223 ft 475 kts 178°
2026-04-30 01:00 44.49163 -107.01291 45239 ft 483 kts 178°
2026-04-30 01:01 44.42408 -107.00369 45235 ft 491 kts 178°
2026-04-30 01:01 44.35596 -106.99440 45223 ft 490 kts 178°
2026-04-30 01:02 44.28874 -106.98527 45227 ft 486 kts 178°
2026-04-30 01:02 44.22151 -106.97616 45229 ft 485 kts 178°
2026-04-30 01:03 44.15399 -106.96704 45231 ft 488 kts 178°
2026-04-30 01:03 44.08656 -106.95794 45236 ft 490 kts 178°
2026-04-30 01:04 44.01879 -106.94881 45233 ft 487 kts 178°
2026-04-30 01:04 43.95142 -106.93976 45229 ft 484 kts 178°
2026-04-30 01:05 43.88479 -106.93085 45226 ft 483 kts 178°
2026-04-30 01:05 43.81765 -106.92186 45224 ft 484 kts 178°
2026-04-30 01:06 43.75081 -106.91295 45222 ft 484 kts 178°
2026-04-30 01:06 43.68365 -106.90401 45222 ft 484 kts 178°
2026-04-30 01:07 43.61652 -106.89510 45217 ft 484 kts 178°
2026-04-30 01:07 43.54942 -106.88621 45218 ft 484 kts 178°
2026-04-30 01:08 43.48232 -106.87734 45216 ft 484 kts 178°
2026-04-30 01:08 43.41576 -106.86855 45212 ft 483 kts 178°
2026-04-30 01:09 43.34870 -106.85973 45198 ft 483 kts 178°
2026-04-30 01:09 43.28176 -106.85094 45200 ft 482 kts 178°
2026-04-30 01:10 43.21501 -106.84220 45194 ft 483 kts 178°
2026-04-30 01:10 43.14827 -106.83347 45188 ft 485 kts 178°
2026-04-30 01:11 43.09208 -106.82615 45185 ft 487 kts 178°
2026-04-30 01:11 43.02444 -106.81732 45172 ft 486 kts 178°
2026-04-30 01:12 42.95719 -106.80859 45168 ft 483 kts 179°
2026-04-30 01:12 42.87952 -106.79853 45166 ft 483 kts 179°
2026-04-30 01:13 42.82370 -106.79132 45165 ft 485 kts 179°
2026-04-30 01:13 42.75619 -106.78260 45159 ft 488 kts 179°
2026-04-30 01:14 42.68861 -106.77388 45159 ft 486 kts 179°
2026-04-30 01:14 42.65493 -106.76956 44959 ft 486 kts 179°
2026-04-30 01:14 42.62124 -106.76524 44394 ft 484 kts 179°
2026-04-30 01:15 42.58787 -106.76093 43841 ft 478 kts 179°
2026-04-30 01:15 42.55498 -106.75669 43298 ft 471 kts 179°
2026-04-30 01:15 42.52295 -106.75261 42769 ft 465 kts 179°
2026-04-30 01:15 42.49088 -106.74852 42251 ft 460 kts 179°
2026-04-30 01:16 42.45911 -106.74446 41741 ft 457 kts 180°
2026-04-30 01:16 42.42744 -106.74043 41245 ft 458 kts 180°
2026-04-30 01:16 42.39557 -106.73640 40770 ft 461 kts 180°
2026-04-30 01:16 42.36340 -106.73230 40302 ft 465 kts 180°
2026-04-30 01:17 42.33101 -106.72815 39847 ft 467 kts 180°
2026-04-30 01:17 42.29874 -106.72403 39400 ft 465 kts 180°
2026-04-30 01:17 42.26695 -106.71999 38974 ft 463 kts 180°
2026-04-30 01:17 42.23517 -106.71597 38456 ft 461 kts 180°
2026-04-30 01:18 42.20329 -106.71193 37910 ft 458 kts 180°
2026-04-30 01:18 42.17163 -106.70792 37388 ft 456 kts 181°
2026-04-30 01:18 42.14007 -106.70394 37167 ft 455 kts 181°
2026-04-30 01:18 42.10813 -106.69996 37167 ft 466 kts 180°
2026-04-30 01:19 42.04266 -106.69165 37165 ft 474 kts 180°
2026-04-30 01:19 41.97710 -106.68337 37157 ft 470 kts 181°
2026-04-30 01:20 41.91246 -106.67528 37154 ft 469 kts 181°
2026-04-30 01:20 41.84739 -106.66712 37145 ft 471 kts 181°
2026-04-30 01:21 41.78183 -106.65892 37140 ft 473 kts 181°
2026-04-30 01:21 41.74902 -106.65481 36730 ft 471 kts 181°
2026-04-30 01:21 41.71665 -106.65072 36226 ft 461 kts 181°
2026-04-30 01:22 41.68505 -106.64676 35731 ft 451 kts 181°
2026-04-30 01:22 41.65443 -106.64299 35253 ft 445 kts 181°
2026-04-30 01:22 41.62317 -106.63916 34768 ft 446 kts 181°
2026-04-30 01:22 41.59254 -106.63537 34311 ft 449 kts 180°
2026-04-30 01:23 41.56132 -106.63145 33789 ft 450 kts 180°
2026-04-30 01:23 41.53007 -106.62756 33092 ft 453 kts 180°
2026-04-30 01:23 41.49859 -106.62368 32365 ft 454 kts 180°
2026-04-30 01:23 41.46710 -106.61977 31648 ft 454 kts 180°
2026-04-30 01:24 41.43569 -106.61586 30949 ft 454 kts 180°
2026-04-30 01:24 41.40401 -106.61198 30272 ft 458 kts 180°
2026-04-30 01:24 41.37230 -106.60808 29487 ft 457 kts 180°
2026-04-30 01:24 41.34082 -106.60414 28713 ft 451 kts 180°
2026-04-30 01:25 41.30987 -106.60029 27963 ft 444 kts 180°
2026-04-30 01:25 41.27931 -106.59656 27226 ft 438 kts 180°
2026-04-30 01:25 41.24943 -106.59293 26517 ft 434 kts 180°
2026-04-30 01:25 41.21942 -106.58923 25814 ft 432 kts 179°
2026-04-30 01:26 41.18955 -106.58554 25184 ft 428 kts 179°
2026-04-30 01:26 41.16000 -106.58191 24703 ft 424 kts 179°
2026-04-30 01:26 41.13055 -106.57834 24229 ft 425 kts 179°
2026-04-30 01:26 41.10110 -106.57474 23764 ft 425 kts 179°
2026-04-30 01:27 41.07211 -106.57116 23227 ft 421 kts 179°
2026-04-30 01:27 41.04311 -106.56760 22683 ft 415 kts 179°
2026-04-30 01:27 41.01442 -106.56411 22141 ft 411 kts 179°
2026-04-30 01:27 40.98612 -106.56068 21614 ft 407 kts 178°
2026-04-30 01:28 40.95799 -106.55724 21094 ft 403 kts 178°
2026-04-30 01:28 40.93019 -106.55385 20538 ft 400 kts 178°
2026-04-30 01:28 40.90279 -106.55053 19878 ft 399 kts 178°
2026-04-30 01:28 40.87528 -106.54718 19225 ft 394 kts 178°
2026-04-30 01:29 40.84812 -106.54388 18583 ft 388 kts 177°
2026-04-30 01:29 40.82135 -106.54061 17871 ft 384 kts 177°
2026-04-30 01:29 40.79486 -106.53740 17170 ft 380 kts 177°
2026-04-30 01:29 40.76880 -106.53425 16761 ft 373 kts 176°
2026-04-30 01:30 40.74276 -106.53111 16398 ft 378 kts 176°
2026-04-30 01:30 40.71688 -106.52799 16044 ft 378 kts 176°
2026-04-30 01:30 40.69063 -106.52482 15599 ft 378 kts 176°
2026-04-30 01:30 40.66447 -106.52164 15161 ft 376 kts 176°
2026-04-30 01:31 40.63850 -106.51852 14780 ft 373 kts 175°
2026-04-30 01:31 40.61275 -106.51540 14622 ft 371 kts 175°
2026-04-30 01:31 40.58689 -106.51228 14508 ft 374 kts 175°
2026-04-30 01:31 40.56097 -106.50918 14392 ft 374 kts 175°
2026-04-30 01:32 40.53501 -106.50604 14265 ft 375 kts 175°
2026-04-30 01:32 40.50902 -106.50291 14148 ft 374 kts 175°
2026-04-30 01:32 40.48356 -106.49986 14027 ft 364 kts 175°
2026-04-30 01:32 40.45910 -106.49691 13968 ft 341 kts 175°
2026-04-30 01:33 40.43631 -106.49418 13951 ft 317 kts 175°
2026-04-30 01:33 40.41480 -106.49159 13958 ft 306 kts 175°
2026-04-30 01:33 40.39344 -106.48905 13957 ft 310 kts 175°
2026-04-30 01:33 40.37201 -106.48645 13960 ft 314 kts 175°
2026-04-30 01:34 40.35023 -106.48389 13955 ft 314 kts 176°
2026-04-30 01:34 40.32850 -106.48127 13945 ft 313 kts 175°
2026-04-30 01:34 40.30682 -106.47865 13951 ft 311 kts 176°
2026-04-30 01:34 40.28522 -106.47609 13942 ft 312 kts 176°
2026-04-30 01:35 40.26364 -106.47353 13945 ft 312 kts 176°
2026-04-30 01:35 40.24203 -106.47095 13952 ft 312 kts 177°
2026-04-30 01:35 40.22029 -106.46837 13951 ft 312 kts 177°
2026-04-30 01:35 40.19866 -106.46578 13946 ft 312 kts 176°
2026-04-30 01:36 40.17707 -106.46318 13954 ft 312 kts 177°
2026-04-30 01:36 40.15573 -106.46066 13952 ft 310 kts 176°
2026-04-30 01:36 40.13423 -106.45811 13947 ft 310 kts 176°
2026-04-30 01:36 40.11266 -106.45553 13955 ft 310 kts 177°
2026-04-30 01:37 40.09114 -106.45298 13949 ft 311 kts 176°
2026-04-30 01:37 40.06961 -106.45043 13949 ft 310 kts 177°
2026-04-30 01:37 40.04807 -106.44789 13948 ft 310 kts 176°
2026-04-30 01:37 40.02665 -106.44533 13943 ft 309 kts 176°
2026-04-30 01:38 40.00578 -106.44432 13944 ft 296 kts 186°
2026-04-30 01:38 39.98626 -106.44934 13949 ft 278 kts 199°
2026-04-30 01:38 39.96802 -106.45726 13953 ft 275 kts 200°
2026-04-30 01:38 39.94961 -106.46492 13953 ft 281 kts 200°
2026-04-30 01:39 39.93097 -106.47265 13942 ft 277 kts 200°
2026-04-30 01:39 39.91312 -106.48021 13949 ft 261 kts 200°
2026-04-30 01:39 39.89634 -106.48733 13946 ft 253 kts 200°
2026-04-30 01:39 39.87950 -106.49443 13952 ft 256 kts 200°
2026-04-30 01:40 39.86241 -106.50159 13941 ft 258 kts 200°
2026-04-30 01:40 39.84577 -106.50859 13952 ft 245 kts 200°
2026-04-30 01:40 39.82960 -106.51541 13763 ft 245 kts 200°
2026-04-30 01:40 39.81352 -106.52217 13748 ft 240 kts 199°
2026-04-30 01:41 39.79766 -106.52880 13757 ft 238 kts 199°
2026-04-30 01:41 39.78221 -106.53527 13756 ft 229 kts 200°
2026-04-30 01:41 39.76717 -106.54160 13755 ft 225 kts 199°
2026-04-30 01:41 39.75198 -106.54796 13498 ft 233 kts 199°
2026-04-30 01:42 39.73677 -106.55437 13211 ft 230 kts 199°
2026-04-30 01:42 39.72169 -106.56068 13004 ft 225 kts 199°
2026-04-30 01:42 39.70757 -106.56875 12761 ft 219 kts 217°
2026-04-30 01:42 39.69650 -106.58240 12494 ft 220 kts 234°
2026-04-30 01:43 39.68939 -106.59981 12243 ft 218 kts 253°
2026-04-30 01:43 39.68637 -106.61873 12125 ft 210 kts 263°
2026-04-30 01:43 39.68352 -106.63776 11824 ft 219 kts 259°
2026-04-30 01:43 39.68040 -106.65744 11424 ft 222 kts 261°
2026-04-30 01:44 39.67754 -106.67699 11011 ft 224 kts 261°
2026-04-30 01:44 39.67463 -106.69696 10595 ft 226 kts 261°
2026-04-30 01:44 39.67162 -106.71704 10249 ft 224 kts 260°
2026-04-30 01:44 39.66858 -106.73675 9895 ft 220 kts 261°
2026-04-30 01:45 39.66582 -106.75603 9523 ft 210 kts 261°
2026-04-30 01:45 39.66297 -106.77411 9144 ft 199 kts 259°
2026-04-30 01:45 39.66054 -106.79126 8785 ft 192 kts 260°
2026-04-30 01:45 39.65790 -106.80822 8448 ft 193 kts 257°
2026-04-30 01:46 39.65501 -106.82488 8153 ft 184 kts 256°
2026-04-30 01:46 39.65243 -106.83941 7942 ft 153 kts 256°
2026-04-30 01:46 39.65013 -106.85262 7686 ft 148 kts 256°
2026-04-30 01:46 39.64820 -106.86573 7424 ft 147 kts 260°
2026-04-30 01:47 39.64671 -106.87868 7148 ft 147 kts 262°
2026-04-30 01:47 39.64541 -106.89186 6837 ft 147 kts 263°
2026-04-30 01:47 39.64398 -106.90491 6556 ft 144 kts 262°
2026-04-30 01:47 39.64274 -106.91622 6509 ft 104 kts 262°
2026-04-30 01:48 39.64190 -106.92380 6486 ft 61 kts 262°
2026-04-30 01:48 39.64146 -106.92765 6470 ft 21 kts 257°
2026-04-30 01:48 39.64062 -106.92790 6476 ft 13 kts 158°
2026-04-30 01:48 39.64047 -106.92772 6471 ft 0 kts 122°
2026-04-30 01:49 39.64042 -106.92754 6470 ft 5 kts 101°
2026-04-30 01:49 39.64048 -106.92674 6479 ft 12 kts 82°
2026-04-30 01:49 39.64062 -106.92553 6483 ft 15 kts 81°
2026-04-30 01:50 39.64075 -106.92421 6486 ft 14 kts 83°
2026-04-30 01:50 39.64089 -106.92295 6489 ft 14 kts 81°
2026-04-30 01:50 39.64102 -106.92178 6492 ft 13 kts 82°
2026-04-30 01:50 39.64114 -106.92070 6495 ft 12 kts 82°
2026-04-30 01:51 39.64127 -106.91943 6499 ft 15 kts 82°
2026-04-30 01:51 39.64140 -106.91813 6503 ft 14 kts 81°
2026-04-30 01:51 39.64158 -106.91664 6507 ft 19 kts 81°
2026-04-30 01:51 39.64179 -106.91475 6513 ft 21 kts 82°
2026-04-30 01:52 39.64196 -106.91294 6518 ft 19 kts 92°
2026-04-30 01:52 39.64146 -106.91167 6521 ft 11 kts 97°
2026-04-30 01:52 39.64116 -106.91098 6522 ft 9 kts 158°
2026-04-30 01:52 39.64073 -106.91100 6522 ft 0 kts 258°
2026-04-30 01:53 39.64073 -106.91107 6522 ft 0 kts 263°